EW1392 Weather Reports


Display with metric or nautical units.
time (UTC)temp
F
wind
direction
speed
MPH
gust
MPH
rain 1hr
in
rain 24hr
in
rain mn
in
humidity
%
barometer
mb
20260503014551 75 337 0.0 0.0 0.00 0.00 0.00 41 1011.6
20260503013044 76 337 0.0 2.0 0.00 0.00 0.00 32 1011.6
20260503011542 75 21 0.0 1.0 0.00 0.00 0.00 31 1011.5
20260503010043 75 22 0.0 0.0 0.00 0.00 0.00 37 1011.6
20260503004541 76 22 0.0 2.0 0.00 0.00 0.00 34 1011.6
20260503003045 77 156 0.0 0.0 0.00 0.00 0.00 32 1011.7
20260503001544 78 285 0.0 2.0 0.00 0.00 0.00 32 1011.8
20260503000041 78 173 0.0 1.0 0.00 0.00 0.00 29 1011.9
20260502234547 78 34 0.0 1.0 0.00 0.00 0.00 31 1012.0
20260502233040 78 5 0.0 1.0 0.00 0.00 0.00 33 1012.1
20260502231531 78 5 0.0 3.0 0.00 0.00 0.00 36 1012.2
20260502230033 78 319 1.0 4.0 0.00 0.00 0.00 33 1012.5
20260502224526 78 25 0.0 0.0 0.00 0.00 0.00 35 1012.7
20260502223035 77 128 0.0 1.0 0.00 0.00 0.00 36 1012.9
20260502221519 77 60 0.0 1.0 0.00 0.00 0.00 36 1013.2
20260502220022 76 290 0.0 2.0 0.00 0.00 0.00 39 1013.2
20260502214515 75 247 1.0 3.0 0.00 0.00 0.00 38 1013.4
20260502213013 75 67 0.0 0.0 0.00 0.00 0.00 41 1013.5
20260502211512 75 42 0.0 1.0 0.00 0.00 0.00 43 1013.6
20260502210010 75 42 0.0 1.0 0.00 0.00 0.00 38 1013.7
20260502204512 75 298 0.0 3.0 0.00 0.00 0.00 41 1013.8
20260502203008 75 223 0.0 4.0 0.00 0.00 0.00 36 1014.0
20260502201506 75 22 0.0 1.0 0.00 0.00 0.00 38 1014.0
20260502200005 75 194 0.0 2.0 0.00 0.00 0.00 40 1014.0
20260502194512 75 195 0.0 3.0 0.00 0.00 0.00 37 1014.1
20260502193002 74 217 0.0 2.0 0.00 0.00 0.00 36 1014.3
20260502191606 73 43 0.0 0.0 0.00 0.00 0.00 41 1014.5
20260502190056 73 43 0.0 2.0 0.00 0.00 0.00 39 1014.7
20260502184600 72 265 0.0 0.0 0.00 0.00 0.00 41 1014.7
20260502183053 70 267 0.0 1.0 0.00 0.00 0.00 44 1014.8
20260502181549 69 267 0.0 0.0 0.00 0.00 0.00 48 1014.8
20260502163035 59 334 0.0 0.0 0.00 0.00 0.00 67 1015.4
20260502161522 56 334 0.0 0.0 0.00 0.00 0.00 78 1015.5
20260502151506 49 334 0.0 0.0 0.00 0.00 0.00 98 1016.0
20260502150113 47 334 0.0 0.0 0.00 0.00 0.00 98 1016.0
20260502123102 45 334 0.0 0.0 0.00 0.00 0.00 95 1015.5
20260502121552 45 334 0.0 0.0 0.00 0.00 0.00 95 1015.4
20260502114556 45 334 0.0 0.0 0.00 0.00 0.00 95 1015.5
20260502113052 46 334 0.0 0.0 0.00 0.00 0.00 95 1015.4
20260502111550 46 334 0.0 0.0 0.00 0.00 0.00 95 1015.3
20260502110052 46 334 0.0 0.0 0.00 0.00 0.00 94 1015.2
20260502104550 46 334 0.0 0.0 0.00 0.00 0.00 93 1015.4
20260502103058 45 335 0.0 0.0 0.00 0.00 0.00 91 1015.8
20260502101557 45 335 0.0 0.0 0.00 0.00 0.00 90 1016.2
20260502100108 45 335 0.0 0.0 0.00 0.00 0.00 90 1015.5
20260502071528 48 335 0.0 0.0 0.00 0.00 0.00 86 1015.4
20260502070026 49 335 0.0 0.0 0.00 0.00 0.00 85 1015.3
20260502064525 49 335 0.0 0.0 0.00 0.00 0.00 84 1015.1
20260502063025 50 335 0.0 0.0 0.00 0.00 0.00 83 1015.0
20260502061532 51 335 0.0 0.0 0.00 0.00 0.00 82 1015.0
20260502060024 51 335 0.0 0.0 0.00 0.00 0.00 82 1014.9
20260502054524 52 335 0.0 0.0 0.00 0.00 0.00 80 1014.8
20260502053023 52 335 0.0 0.0 0.00 0.00 0.00 80 1014.8
20260502051525 53 335 0.0 0.0 0.00 0.00 0.00 79 1014.7
20260502050027 53 335 0.0 0.0 0.00 0.00 0.00 78 1014.8
20260502044524 54 335 0.0 0.0 0.00 0.00 0.00 77 1014.8
20260502043024 55 335 0.0 0.0 0.00 0.00 0.00 76 1014.4
20260502041526 55 335 0.0 0.0 0.00 0.00 0.00 74 1014.2
20260502040020 57 335 0.0 0.0 0.00 0.00 0.00 73 1014.1
20260502034520 58 335 0.0 0.0 0.00 0.00 0.00 70 1013.9
20260502033025 60 335 0.0 0.0 0.00 0.00 0.00 67 1013.5
20260502031519 61 335 0.0 0.0 0.00 0.00 0.00 64 1013.4
20260502030019 63 335 0.0 0.0 0.00 0.00 0.00 62 1013.3
20260502024520 65 335 0.0 0.0 0.00 0.00 0.00 58 1013.1
20260502023018 66 335 0.0 0.0 0.00 0.00 0.00 55 1013.0
20260502021517 68 335 0.0 0.0 0.00 0.00 0.00 49 1013.0
20260502020019 69 335 0.0 1.0 0.00 0.00 0.00 45 1012.9